Location: Altwarmbüchen
(52.4344°N, 9.8561°E)
Time: 19:33:35
(UTC+00:00)

Daily predictions for brighter satellites

Satellite Brightness Start Highest point End
(mag) Time Altitude Azimuth Time Altitude Azimuth Time Altitude Azimuth
Cosmos 2233 Rocket 4.5 17:46:52 10° SSW 17:53:00 70° WNW 17:59:14 10° N
USA 267 3.4 17:46:52 10° ENE 17:53:29 83° NNW 18:00:04 10° WSW
Cosmos 1943 Rocket 2.6 17:48:35 10° NW 17:54:04 66° WSW 17:59:33 10° SSE
KORONAS-FOTON 4.1 17:51:04 10° NNW 17:54:45 69° W 17:58:24 10° S
Cosmos 2150 Rocket 4.0 17:49:53 10° NNW 17:55:02 63° ENE 18:00:07 10° SE
Iridium 4 Rocket 3.2 17:51:00 10° N 17:55:11 79° W 17:59:28 10° S
USA 186 3.3 17:53:22 10° ESE 17:55:44 19° ENE 17:58:07 10° NNE
SJ-6B 3.0 17:52:49 10° SE 17:56:12 41° ENE 17:59:37 10° N
Okean 3 Rocket 3.7 17:52:29 10° S 17:56:46 52° E 18:01:04 10° NNE
SL-08 R/B 4.0 17:53:00 10° NNE 17:57:32 35° E 18:02:01 10° SSE
NOSS 3-3 (A) 4.1 17:52:45 10° SSW 17:57:55 47° ESE 18:03:59 10° NE
Cosmos 2298 Rocket 4.1 17:52:48 10° NNW 17:58:07 67° ENE 18:03:24 10° SE
Cosmos 1408 Rocket 4.2 17:54:55 10° SSE 17:58:53 34° E 18:02:55 10° NNE
SeaSat 1 2.6 17:56:03 10° NE 18:00:52 51° ESE 18:05:39 10° SSW
Helios 1A 3.9 17:57:53 10° NE 18:01:20 26° E 18:04:45 10° SSE
Cosmos 158 Rocket 4.0 17:58:12 10° S 18:02:54 52° ESE 18:07:40 10° NNE
Cosmos 1513 Rocket 4.4 17:59:11 10° S 18:05:12 69° E 18:11:21 10° NNE
Sich 1 3.9 18:02:24 10° SSE 18:06:07 29° E 18:09:52 10° NNE
GEOS 3 Rocket 4.2 18:01:20 10° ESE 18:06:15 44° NNE 18:11:08 10° NW
COSMO-SKYMED 1 3.2 18:02:05 10° N 18:06:24 61° WNW 18:10:40 10° SSW
Okean O Rocket 3.0 18:04:09 10° ESE 18:07:30 22° ENE 18:10:51 10° N
Cosmos 1656 Rocket 3.9 18:02:19 10° NNW 18:07:53 54° NE 18:13:20 10° SE
CARTOSAT-1 4.3 18:04:39 10° SE 18:08:28 33° ENE 18:12:17 10° N
Cosmos 2297 4.0 18:03:49 10° NNW 18:09:19 50° NE 18:14:49 10° SE
Cosmos 1607 4.5 18:05:11 10° S 18:11:04 39° ESE 18:16:57 10° NE
Aureole 3 Rocket 4.0 18:07:46 10° SSE 18:12:20 30° E 18:15:52 10° NNE
Cosmos 2369 Rocket 2.6 18:08:37 10° NNW 18:14:09 47° NE 18:19:39 10° ESE
Helios 1B rocket 3.4 18:12:38 10° S 18:16:21 46° W 18:20:04 10° NNW
CZ-4 R/B 1.5 18:12:41 10° SE 18:16:28 50° ENE 18:20:20 10° N
GRACE-FO 1 4.4 18:13:11 10° SSE 18:16:40 65° E 18:20:10 10° N
TRACE 4.3 18:13:29 10° NNE 18:16:51 62° ESE 18:20:09 10° S
Meteor 1-23 Rocket 4.4 18:11:19 10° N 18:16:54 56° ENE 18:22:30 10° SSE
GRACE-FO 2 4.4 18:13:37 10° S 18:17:05 65° E 18:20:36 10° N
SPOT 5 4.3 18:14:53 11° E 18:17:23 17° ENE 18:20:07 10° NNE
PAYLOAD B 4.4 18:12:04 10° SE 18:17:32 57° ENE 18:23:02 10° N
Cosmos 1464 Rocket 4.0 18:12:56 10° S 18:19:13 68° E 18:25:34 10° NNE
NOSS 3-4 (A) 3.8 18:14:10 10° NW 18:20:47 78° NE 18:28:30 10° SE
NOSS 3-4 (C) 3.8 18:14:15 10° NW 18:20:53 77° NE 18:28:35 10° SE
ARIANE 6 FM1 Upper Stage 4.4 18:18:47 10° SSE 18:20:59 14° ESE 18:21:45 13° ESE
Cosmos 1980 3.8 18:15:46 10° SSW 18:21:28 85° WNW 18:27:13 10° NNE
Terra 3.8 18:22:24 10° ENE 18:24:23 13° NE 18:26:23 10° NNE
CZ-4B R/B 3.0 18:22:13 10° SSE 18:26:13 62° ENE 18:30:24 10° N
Meteor 1-13 Rocket 4.4 18:20:24 10° NNW 18:26:16 84° W 18:31:57 10° S
Cosmos 2228 Rocket 4.0 18:25:16 10° N 18:29:23 31° ENE 18:32:38 14° SE
Cosmos 1805 Rocket 3.8 18:25:44 10° SSE 18:29:51 45° E 18:34:01 10° NNE
Cosmos 1441 Rocket 4.2 18:29:44 10° SE 18:32:35 23° E 18:35:27 10° NE
Resurs 01 Rocket 1.7 18:31:17 10° SSE 18:35:37 58° ENE 18:39:58 10° N
Cosmos 1975 3.5 18:32:16 10° SSE 18:35:44 31° E 18:39:13 10° NNE
Okean-O 3.8 18:39:41 18° ESE 18:41:47 26° ENE 18:45:27 10° N
Feng Yun 1-1 Rocket 4.4 18:36:18 10° SSE 18:42:06 64° ENE 18:47:59 10° NNW
Cosmos 1862 Rocket 4.4 18:38:06 10° N 18:42:08 33° ENE 18:44:35 19° ESE
Cosmos 1707 Rocket 4.1 18:41:09 10° N 18:45:20 38° ENE 18:47:57 20° SE
Cosmos 2034 Rocket 3.9 18:40:14 10° S 18:46:22 73° E 18:52:31 10° NNE
USA 306 2.3 18:43:38 10° WNW 18:46:52 77° N 18:48:52 25° E
ISS -3.8 18:44:08 10° W 18:47:30 80° S 18:49:13 27° E
Meteor PRIRODA 4.1 18:44:31 10° S 18:47:43 52° W 18:50:57 10° NNW
ERS-1 Rocket 4.3 18:46:19 18° E 18:48:21 23° ENE 18:52:13 10° N
Cosmos 2208 Rocket 4.2 18:46:58 10° SSW 18:52:17 79° WNW 18:57:43 10° NNE
Meteor 2-12 Rocket 4.5 18:46:36 10° N 18:52:45 64° ENE 18:58:51 10° SSE
Cosmos 1666 Rocket 4.4 18:51:16 22° SE 18:52:53 28° E 18:56:35 10° NNE
ACS3 Solar Sail 2.0 18:48:40 10° SSE 18:54:58 61° ENE 19:01:17 10° N
Cosmos 1733 4.4 18:52:00 10° SW 18:55:15 40° WNW 18:58:31 10° N
SL-16 R/B 2.2 18:50:41 10° SSW 18:56:14 60° ESE 19:01:49 10° NE
Cosmos 1315 Rocket 4.1 18:52:30 10° NNW 18:56:17 41° W 19:00:01 10° SSW
Cosmos 1805 3.0 18:55:12 10° S 18:58:51 87° W 19:02:32 10° N
Okean 3 3.6 19:02:48 10° N 19:06:53 50° ENE 19:08:31 31° SE
SL-14 R/B 3.7 19:04:53 10° NNW 19:08:39 59° W 19:12:25 10° S
ATLAS CENTAUR R/B 2.9 19:06:00 10° W 19:09:18 31° NNW 19:12:47 10° NNE
Cosmos 1943 4.0 19:07:43 24° SE 19:09:21 28° ESE 19:14:06 10° NE
Meteor 1-11 Rocket 4.2 19:03:55 10° SSW 19:09:24 61° WNW 19:14:53 10° N
ATLAS 2AS CENTAUR R/B 3.9 19:04:53 10° NW 19:11:13 34° N 19:16:26 14° ENE
Cosmos 783 Rocket 4.5 19:07:01 10° S 19:12:11 61° ESE 19:17:21 10° NNE
SL-24 R/B 4.4 19:09:51 22° SSE 19:12:46 56° E 19:17:35 10° N
Meteor 1-21 4.3 19:07:57 10° NNW 19:13:46 83° W 19:19:34 10° S
PSLV R/B 3.7 19:14:51 45° ESE 19:15:22 50° ENE 19:18:44 10° N
CSL-04 Rocket 3.7 19:11:58 10° SSE 19:17:12 78° WSW 19:22:31 10° NNW
Cosmos 2263 4.2 19:12:27 10° NNW 19:18:12 88° ENE 19:21:31 26° SSE
Ariane Rocket 4.2 19:17:38 23° ENE 19:18:38 25° ENE 19:22:42 10° N
CZ-4B R/B 3.4 19:13:41 10° S 19:19:04 70° WSW 19:24:24 10° NNW
MOS 1 4.3 19:17:17 26° SE 19:20:29 63° ENE 19:26:06 10° N
Cosmos 1500 Rocket 4.5 19:20:14 10° SSW 19:24:27 49° WNW 19:28:40 10° N
USA 186 3.4 19:24:40 13° SSW 19:27:15 34° W 19:30:14 10° NNW
Cosmos 773 Rocket 4.4 19:27:42 10° SW 19:32:57 65° WNW 19:38:15 10° NNE
Cosmos 1743 Rocket 4.4 19:30:12 10° SSW 19:34:25 52° WNW 19:38:43 10° N
Cosmos 2237 Rocket 3.8 19:30:00 10° WSW 19:35:06 34° NW 19:40:14 10° NNE
Cosmos 2026 Rocket 4.5 19:30:10 10° NNW 19:36:13 58° W 19:42:11 10° S
USA 267 3.6 19:31:14 17° ENE 19:36:17 61° N 19:42:44 10° W
Helios 1A 4.3 19:32:40 10° N 19:36:28 39° WNW 19:40:16 10° SW
SeaSat 1 4.0 19:33:42 10° NNE 19:38:11 36° NW 19:42:38 10° WSW
NOSS 3-3 (C) 4.4 19:32:57 10° WSW 19:38:34 61° NW 19:45:18 10° NE
Cosmos 2056 Rocket 4.5 19:34:09 10° NNW 19:38:53 31° NE 19:39:51 29° ENE
Cosmos 2266 Rocket 4.2 19:34:32 10° N 19:40:44 54° ENE 19:42:48 39° SE
Cosmos 724 4.4 19:35:18 10° SW 19:41:05 77° NW 19:46:57 10° NE
Cosmos 1766 2.9 19:41:42 75° S 19:41:59 87° E 19:45:42 10° NNE
Okean O Rocket 2.0 19:41:03 26° S 19:43:24 60° WSW 19:47:47 10° NNW
GEOS 3 Rocket 3.9 19:41:58 33° SSE 19:44:11 59° SW 19:49:19 10° NW
Cosmos 1408 4.4 19:45:27 10° N 19:46:07 16° N 19:46:07 16° N
CZ-4 R/B 3.9 19:48:28 10° SW 19:51:16 19° W 19:54:07 10° NW
SL-24 R/B - RUBIN 2 4.4 19:45:53 10° NW 19:52:22 68° NE 19:54:07 46° ESE
SPOT 5 2.6 19:54:01 56° S 19:54:54 81° WSW 19:59:17 10° NNW
Cosmos 1607 4.4 19:51:42 10° WSW 19:58:07 64° NW 20:04:31 10° NE
Cosmos 2369 Rocket 3.3 19:52:49 10° NW 19:58:09 40° WSW 20:01:28 21° SSW
Okean 2 3.4 19:54:54 10° NNW 19:58:54 73° W 19:59:08 70° SW
ARIANE 6 FM1 Upper Stage 3.5 19:55:21 10° SW 19:58:11 41° SSW 19:58:11 41° SSW
Cosmos 1420 Rocket 4.2 19:55:05 10° NNW 20:00:09 50° ENE 20:00:34 49° ENE
Cosmos 2344 4.1 19:52:58 10° NW 20:00:32 57° NNE 20:05:08 31° E
Terra 1.7 20:00:58 64° E 20:01:06 64° ENE 20:05:46 10° N
BREEZE-M DEB (TANK) 3.7 19:44:47 10° W 20:01:58 66° SSW 20:03:29 49° SE
Aureole 3 3.8 19:58:14 10° NNW 20:02:46 88° WSW 20:03:54 56° S
Okean 1-7 3.0 20:02:59 10° NNW 20:07:17 75° W 20:07:26 74° WSW
Cosmos 2228 Rocket 4.5 20:03:22 10° NNW 20:07:34 37° W 20:10:04 21° SW
Cosmos 1633 Rocket 3.3 20:09:44 47° SW 20:10:49 66° WNW 20:15:13 10° N
Resurs 01 Rocket 4.0 20:09:07 10° SW 20:12:23 20° W 20:15:41 10° NW
MetOp-B 4.4 20:11:40 43° SSW 20:13:20 66° WSW 20:18:42 10° NNW
Cosmos 2084 Rocket 3.6 20:09:11 10° SW 20:13:12 68° WNW 20:13:12 68° WNW
Cosmos 1538 Rocket 3.9 20:13:37 64° S 20:14:25 78° ESE 20:19:48 10° NNE
RESURS DK-1 3.7 20:12:04 10° NNW 20:14:56 30° NNE 20:14:56 30° NNE
Cosmos 1656 4.2 20:10:20 10° NNW 20:15:48 44° NE 20:16:15 44° ENE
Meteor 1-24 Rocket 4.1 20:10:54 10° N 20:16:36 48° ENE 20:16:38 48° ENE
Cosmos 1980 Rocket 4.1 20:13:30 10° NNW 20:17:19 18° NNE 20:19:05 16° NE
Okean-O 3.4 20:17:08 41° SW 20:17:57 46° W 20:22:13 10° NNW
USA 306 4.3 20:15:58 10° WNW 20:17:50 27° W 20:17:50 27° W
MOS 1 Rocket 3.9 20:20:11 47° SSW 20:21:30 63° W 20:26:52 10° NNW
SL-08 ROCKET BODY 4.4 20:15:40 10° NNW 20:21:51 85° W 20:23:17 56° S
Spot 2 Rocket 3.3 20:23:41 82° ENE 20:23:41 82° ENE 20:28:43 10° NNW
ISS -1.3 20:20:54 10° W 20:22:09 20° W 20:22:09 20° W
ERS-1 Rocket 3.0 20:26:14 67° SW 20:26:39 71° WSW 20:31:41 10° NNW
IRS-1A Rocket 4.5 20:27:24 50° SSW 20:28:42 65° WSW 20:34:19 10° NNW
Cosmos 1470 Rocket 4.0 20:33:03 60° NW 20:33:03 60° NW 20:37:11 10° N
Cosmos 1703 Rocket 4.0 20:28:34 10° NNW 20:32:25 59° NW 20:32:25 59° NW
ACS3 Solar Sail 3.4 20:33:50 10° SSW 20:39:23 31° W 20:45:02 10° NNW
SL-16 R/B 3.8 20:35:32 10° WSW 20:40:41 34° NW 20:45:51 10° NNE
SPOT 3 Rocket 3.6 20:41:30 77° NNW 20:41:30 77° NNW 20:46:17 10° NNW
Cosmos 1371 Rocket 4.1 20:35:59 10° NNW 20:40:37 68° N 20:40:37 68° N
Meteor 2-5 Rocket 3.8 20:38:54 10° N 20:44:37 72° NE 20:44:37 72° NE
ATLAS CENTAUR R/B 4.0 20:45:32 10° NW 20:47:46 15° N 20:49:32 12° NNE
Cosmos 1624 Rocket 4.2 20:44:48 10° NNW 20:49:24 68° NNW 20:49:24 68° NNW
Cosmos 1943 3.5 20:49:01 20° SW 20:53:00 63° NW 20:58:39 10° NNE
Cosmos 1603 4.1 20:55:35 52° NNE 20:55:35 52° NNE 20:59:49 10° NNE
Ariane Rocket 3.4 20:57:45 59° WNW 20:57:45 59° WNW 21:02:15 10° NNW
Cosmos 1697 Rocket 3.5 20:53:36 10° NNW 20:58:31 40° NE 20:58:31 40° NE
Meteor 2-10 Rocket 4.4 21:02:20 45° NNE 21:02:20 45° NNE 21:06:15 10° NNE
Cosmos 1655 Rocket 4.1 20:56:35 10° NNW 21:02:57 68° W 21:03:30 64° SW
ATLAS 2AS CENTAUR R/B 2.8 20:56:29 10° NW 21:03:21 63° NE 21:03:49 61° ENE
USA 267 3.2 21:18:34 71° NE 21:19:01 73° NNE 21:25:35 10° WNW
Cosmos 2056 Rocket 4.4 21:16:05 10° NNW 21:20:08 46° WNW 21:20:08 46° WNW
Terra 3.9 21:39:40 20° W 21:39:40 20° W 21:42:37 10° NW
SL-16 R/B 4.1 21:48:13 10° NNW 21:52:30 21° NNE 21:53:04 21° NE
Cosmos 1980 Rocket 3.4 21:57:05 10° NNW 22:00:49 39° N 22:00:49 39° N
Cosmos 2333 Rocket 4.4 22:03:58 10° NNW 22:07:51 18° NNE 22:09:33 16° NE
Cosmos 2344 4.1 22:07:13 10° NW 22:15:07 59° WSW 22:15:07 59° WSW
Cosmos 1697 Rocket 4.4 22:37:38 10° NW 22:40:13 26° NW 22:40:13 26° NW
Cosmos 2360 Rocket 4.0 22:46:03 10° NNW 22:50:33 25° NE 22:50:33 25° NE
ATLAS 2AS CENTAUR R/B 4.0 22:47:43 10° NW 22:51:13 29° WNW 22:51:13 29° WNW
Cosmos 2219 Rocket 4.3 22:58:41 10° NNW 23:02:52 21° NNE 23:04:14 19° NE
Cosmos 2322 Rocket 3.7 23:03:16 10° NNW 23:07:17 31° NNE 23:07:17 31° NNE
Cosmos 2082 Rocket 3.9 23:26:45 26° NE 23:26:45 26° NE 23:29:11 10° NE
SL-16 R/B 3.8 23:31:58 10° NNW 23:34:52 31° NNW 23:34:52 31° NNW
CZ-3B R/B 4.5 23:24:22 10° WNW 23:36:26 44° W 23:36:26 44° W
Cosmos 1980 Rocket 4.5 23:41:26 10° NW 23:42:32 15° NW 23:42:32 15° NW
Cosmos 2333 Rocket 3.6 23:47:56 10° NNW 23:51:31 35° N 23:51:31 35° N
